EW5648 Weather Reports


time (UTC)temp
C
wind
direction
speed
KPH
gust
KPH
rain 1hr
cm
rain 24hr
cm
rain mn
cm
humidity
%
barometer
mb
20260505102033 12 0.0 0.0 0.00 0.00 0.00 86 1022.3
20260505101025 12 107 0.0 3.2 0.00 0.00 0.00 86 1022.3
20260505100023 12 0.0 0.0 0.00 0.00 0.00 85 1022.3
20260505095027 12 0.0 0.0 0.00 0.03 0.00 85 1022.3
20260505094018 12 0.0 0.0 0.00 0.03 0.00 86 1022.4
20260505093025 12 0.0 0.0 0.00 0.03 0.00 85 1022.3
20260505092034 12 0.0 0.0 0.00 0.03 0.00 86 1022.2
20260505091046 12 0.0 0.0 0.00 0.10 0.00 86 1022.3
20260505090017 13 0.0 0.0 0.00 0.10 0.00 85 1022.2
20260505085020 13 0.0 0.0 0.00 0.13 0.00 84 1022.1
20260505084023 13 104 0.0 3.2 0.00 0.13 0.00 84 1021.9
20260505083022 13 121 0.0 3.2 0.00 0.13 0.00 84 1021.9
20260505082129 13 90 0.0 3.2 0.00 0.13 0.00 83 1021.8
20260505081026 13 82 0.0 3.2 0.00 0.13 0.00 83 1021.7
20260505080035 13 55 0.0 3.2 0.00 0.13 0.00 82 1021.6
20260505075025 13 113 0.0 3.2 0.00 0.13 0.00 82 1021.5
20260505074018 13 0.0 0.0 0.00 0.13 0.00 80 1021.4
20260505073025 13 0.0 0.0 0.00 0.13 0.00 80 1021.3
20260505072019 14 0.0 0.0 0.00 0.13 0.00 80 1021.2
20260505071025 14 0.0 0.0 0.00 0.13 0.00 78 1021.1
20260505070034 14 0.0 0.0 0.00 0.13 0.00 77 1021.0
20260505065026 15 0.0 0.0 0.00 0.13 0.00 76 1020.8
20260505064017 15 0.0 0.0 0.00 0.13 0.00 75 1020.7
20260505063049 15 74 0.0 3.2 0.00 0.13 0.00 73 1020.7
20260505062019 15 0.0 0.0 0.00 0.13 0.00 73 1020.7
20260505061025 15 0.0 0.0 0.00 0.13 0.00 73 1020.7
20260505060021 15 3 1.6 8.0 0.00 0.13 0.00 71 1020.6
20260505055019 15 1 4.8 8.0 0.00 0.13 0.00 71 1020.4
20260505054026 15 1 4.8 8.0 0.00 0.13 0.00 71 1020.3
20260505053031 15 1 4.8 8.0 0.00 0.13 0.00 71 1020.2
20260505052106 15 1 4.8 8.0 0.00 0.13 0.00 71 1020.1
20260505051030 15 1 4.8 8.0 0.00 0.13 0.00 71 1020.1
20260505041047 15 272 0.0 3.2 0.00 0.13 0.00 72 1019.7
20260505040050 15 272 0.0 3.2 0.00 0.13 0.00 72 1019.7
20260505035044 15 267 0.0 3.2 0.00 0.13 0.00 72 1019.7
20260505034053 15 287 0.0 3.2 0.00 0.13 0.00 72 1019.7
20260505033025 15 287 1.6 8.0 0.00 0.13 0.00 70 1019.6
20260505032034 15 269 1.6 3.2 0.00 0.13 0.00 71 1019.5
20260505031021 15 303 3.2 8.0 0.00 0.13 0.00 71 1019.5
20260505030024 14 261 1.6 3.2 0.00 0.13 0.00 74 1019.6
20260505025111 14 241 4.8 11.3 0.00 0.13 0.00 74 1019.5
20260505024039 15 277 1.6 8.0 0.00 0.13 0.00 75 1019.5
20260505023107 15 275 4.8 8.0 0.00 0.13 0.00 74 1019.6
20260505022032 15 260 1.6 8.0 0.00 0.13 0.00 73 1019.7
20260505021041 14 249 1.6 3.2 0.00 0.13 0.00 74 1019.8
20260505020031 14 262 4.8 11.3 0.00 0.13 0.00 75 1020.0
20260505015025 14 266 3.2 8.0 0.00 0.13 0.00 76 1020.1
20260505014018 14 247 0.0 3.2 0.00 0.13 0.00 78 1020.0
20260505013027 13 228 3.2 8.0 0.00 0.13 0.00 81 1020.1
20260505012031 13 0.0 0.0 0.00 0.13 0.00 82 1020.1
20260505011018 13 265 1.6 3.2 0.00 0.13 0.00 83 1020.1
20260505010021 13 259 1.6 3.2 0.00 0.13 0.00 85 1020.0
20260505005038 13 256 1.6 8.0 0.00 0.13 0.00 84 1020.0
20260505004023 13 274 0.0 3.2 0.00 0.13 0.00 82 1019.8
20260505003041 13 240 3.2 11.3 0.00 0.13 0.00 83 1019.8
20260505002027 13 332 1.6 3.2 0.00 0.13 0.00 82 1019.7
20260505001032 13 260 0.0 3.2 0.00 0.13 0.00 83 1019.7
20260505000031 13 295 6.4 11.3 0.00 0.13 0.00 83 1019.7
20260504235133 13 288 1.6 3.2 0.00 0.13 0.00 85 1019.6
20260504234022 13 288 1.6 3.2 0.00 0.13 0.00 85 1019.6
20260504233030 13 337 1.6 3.2 0.00 0.13 0.00 85 1019.6
20260504232021 12 0.0 0.0 0.00 0.13 0.00 89 1019.5
20260504231025 12 0.0 0.0 0.00 0.13 0.00 89 1019.5
20260504230030 12 0.0 0.0 0.00 0.13 0.00 89 1019.4
20260504225030 12 312 0.0 3.2 0.00 0.13 0.00 89 1019.2
20260504224031 12 252 0.0 3.2 0.00 0.13 0.00 89 1019.2
20260504223032 12 252 0.0 3.2 0.00 0.13 0.00 90 1019.0
20260504222032 12 252 0.0 3.2 0.00 0.13 0.00 90 1018.8
20260504221034 12 252 0.0 3.2 0.00 0.13 0.00 90 1018.6
20260504220019 12 250 1.6 8.0 0.00 0.13 0.00 90 1018.5
20260504215025 12 269 1.6 11.3 0.00 0.13 0.00 91 1018.3
20260504214103 12 12 0.0 3.2 0.00 0.13 0.00 92 1018.0
20260504213115 11 203 0.0 3.2 0.00 0.13 0.00 92 1017.8
20260504212032 11 269 1.6 8.0 0.00 0.13 0.00 93 1017.7
20260504211026 11 255 0.0 3.2 0.00 0.13 0.00 94 1017.5
20260504210039 11 247 0.0 3.2 0.00 0.13 0.00 93 1017.2
20260504205025 12 262 0.0 3.2 0.00 0.13 0.00 93 1017.2
20260504204033 12 280 1.6 8.0 0.00 0.13 0.00 93 1017.0
20260504203028 12 260 1.6 8.0 0.00 0.13 0.00 92 1016.9
20260504202034 12 253 4.8 19.3 0.00 0.13 0.00 88 1016.6
20260504201026 12 267 0.0 3.2 0.00 0.13 0.00 86 1016.2
20260504200034 12 254 0.0 3.2 0.00 0.13 0.00 86 1016.2
20260504195024 12 0.0 0.0 0.00 0.13 0.00 86 1016.1
20260504194035 12 246 1.6 8.0 0.00 0.13 0.00 86 1016.2
20260504193026 12 264 0.0 3.2 0.00 0.13 0.00 86 1016.0
20260504192033 12 294 1.6 8.0 0.00 0.13 0.00 88 1015.9
20260504191026 12 307 0.0 3.2 0.00 0.13 0.00 89 1015.9
20260504190033 12 199 0.0 3.2 0.00 0.13 0.00 89 1015.7
20260504185026 12 118 0.0 3.2 0.00 0.13 0.00 89 1015.5
20260504184019 12 101 0.0 3.2 0.00 0.13 0.00 89 1015.6
20260504183026 12 10 0.0 3.2 0.00 0.13 0.00 89 1015.5
20260504182033 12 64 1.6 8.0 0.00 0.13 0.00 89 1015.3
20260504181025 12 7 0.0 3.2 0.00 0.13 0.00 88 1015.2
20260504180032 13 314 0.0 3.2 0.00 0.13 0.00 86 1015.1
20260504175025 13 308 1.6 8.0 0.00 0.13 0.00 85 1015.1
20260504174032 13 297 3.2 11.3 0.00 0.13 0.00 84 1015.0
20260504173024 13 310 0.0 3.2 0.00 0.13 0.00 84 1014.9
20260504172031 13 56 0.0 3.2 0.00 0.13 0.00 83 1014.8
20260504171024 13 277 0.0 8.0 0.00 0.13 0.00 83 1014.8
20260504151031 13 354 3.2 16.1 0.00 0.13 0.00 84 1014.1
20260504141035 13 322 1.6 11.3 0.00 0.13 0.00 85 1013.7